Weather History for Brno, Czech Republic

Change the Weather History Date:

Saturday, March 2, 2013

  Actual Average Record
Temperature  
Mean Temperature 37 °F -  
Max Temperature 44 °F 48 °F - ()
Min Temperature 28 °F 32 °F - ()
Degree Days  
Heating Degree Days 28    
Moisture  
Dew Point 24 °F    
Average Humidity 63    
Maximum Humidity 80    
Minimum Humidity 31    
Precipitation  
Precipitation 0.00 in 0.03 in - ()
Sea Level Pressure  
Sea Level Pressure 30.15 in    
Wind  
Wind Speed 7 mph ()    
Max Wind Speed 13 mph    
Max Gust Speed -    
Visibility 6.7 miles    
Events      
T = Trace of Precipitation, MM = Missing Value Source: Averaged Metar Reports

Daily Weather History Graph

Daily Weather History Graph

Search for Another Location

Airport:

Trip Planner

Search our weather history database for the weather conditions in past years. The results will help you decide how hot, cold, wet, or windy it might be!

Date:

Astronomy

Mar. 02, 2013 Rise Set
Actual Time 6:33 AM CET 5:38 PM CET
Civil Twilight 6:01 AM CET 6:09 PM CET
Nautical Twilight 5:25 AM CET 6:46 PM CET
Astronomical Twilight 4:48 AM CET 7:23 PM CET
Moon 11:31 PM CET (3/2) 8:19 AM CET (3/2)
Length of Visible Light 12h 08m
Length of Day
11h 04m
Waning Gibbous, 76% of the Moon is Illuminated
Mar 2
Waning Gibbous
Mar 4
Last Quarter
Mar 11
New
Mar 19
First Quarter
Mar 27
Full

Hourly Weather History & Observations

Time (CET) Temp. Windchill Dew Point Humidity Pressure Visibility Wind Dir Wind Speed Gust Speed Precip Events Conditions
12:00 AM 33.8 °F 27.0 °F 26.6 °F 75% 30.15 in 6.2 mi NW 8.1 mph - N/A   Mostly Cloudy
12:30 AM 33.8 °F 27.7 °F 24.8 °F 70% 30.15 in 6.2 mi NW 6.9 mph - N/A   Mostly Cloudy
1:00 AM 34 °F - 25 °F 60% 30.22 in 28 mi NW 6.7 mph - -   Mostly Cloudy
1:00 AM 33.8 °F 27.7 °F 24.8 °F 70% 30.15 in 6.2 mi NW 6.9 mph - N/A   Mostly Cloudy
1:30 AM 33.8 °F 27.0 °F 24.8 °F 70% 30.15 in 6.2 mi NW 8.1 mph - N/A   Partly Cloudy
2:00 AM 33.8 °F 25.8 °F 24.8 °F 70% 30.15 in 6.2 mi WNW 10.4 mph - N/A   Partly Cloudy
2:30 AM 33.8 °F 26.4 °F 24.8 °F 70% 30.15 in 6.2 mi NW 9.2 mph - N/A   Partly Cloudy
3:00 AM 32.0 °F 23.0 °F 24.8 °F 75% 30.15 in 6.2 mi NW 11.5 mph - N/A   Partly Cloudy
3:30 AM 32.0 °F 24.8 °F 24.8 °F 75% 30.15 in 6.2 mi NW 8.1 mph - N/A   Partly Cloudy
4:00 AM 32.0 °F 24.2 °F 24.8 °F 75% 30.15 in - NW 9.2 mph - N/A   Clear
4:30 AM 32.0 °F 23.0 °F 24.8 °F 75% 30.15 in - NW 11.5 mph - N/A   Clear
5:00 AM 32.0 °F 23.6 °F 24.8 °F 75% 30.15 in - NW 10.4 mph - N/A   Clear
5:30 AM 30.2 °F 20.2 °F 24.8 °F 80% 30.15 in - NW 12.7 mph - N/A   Clear
6:00 AM 30.2 °F 22.6 °F 24.8 °F 80% 30.15 in - NW 8.1 mph - N/A   Clear
6:30 AM 30.2 °F 25.4 °F 24.8 °F 80% 30.18 in 6.2 mi WNW 4.6 mph - N/A   Partly Cloudy
7:00 AM 31 °F - 23 °F 64% 30.25 in 19 mi WNW 6.7 mph - -   Scattered Clouds
7:00 AM 30.2 °F 23.4 °F 24.8 °F 80% 30.18 in 6.2 mi West 6.9 mph - N/A   Partly Cloudy
7:30 AM 32.0 °F 25.6 °F 24.8 °F 75% 30.18 in 6.2 mi West 6.9 mph - N/A   Partly Cloudy
8:00 AM 32.0 °F 25.6 °F 24.8 °F 75% 30.18 in 6.2 mi West 6.9 mph - N/A   Partly Cloudy
8:30 AM 33.8 °F 28.6 °F 26.6 °F 75% 30.18 in 6.2 mi West 5.8 mph - N/A   Partly Cloudy
9:00 AM 35.6 °F 29.2 °F 26.6 °F 70% 30.18 in 6.2 mi NW 8.1 mph - N/A   Partly Cloudy
9:30 AM 35.6 °F 29.2 °F 24.8 °F 65% 30.18 in 6.2 mi NNW 8.1 mph - N/A   Partly Cloudy
10:00 AM 37.4 °F 30.3 °F 24.8 °F 60% 30.18 in 6.2 mi NW 10.4 mph - N/A   Partly Cloudy
10:30 AM 39.2 °F 33.6 °F 24.8 °F 56% 30.18 in 6.2 mi NNW 8.1 mph - N/A   Partly Cloudy
11:00 AM 39.2 °F 34.2 °F 24.8 °F 56% 30.21 in 6.2 mi WNW 6.9 mph - N/A   Partly Cloudy
11:30 AM 41.0 °F 36.4 °F 24.8 °F 53% 30.21 in 6.2 mi NW 6.9 mph - N/A   Partly Cloudy
12:00 PM 42.8 °F 40.1 °F 23.0 °F 46% 30.18 in 6.2 mi Variable 4.6 mph - N/A   Scattered Clouds
12:30 PM 41.0 °F 39.0 °F 21.2 °F 45% 30.18 in 6.2 mi Variable 3.5 mph - N/A   Mostly Cloudy
1:00 PM 42 °F - 22 °F 31% 30.21 in 25 mi SW 2.2 mph - -   Mostly Cloudy
1:00 PM 42.8 °F 41.1 °F 21.2 °F 42% 30.18 in 6.2 mi SSW 3.5 mph - N/A   Mostly Cloudy
1:30 PM 42.8 °F 39.3 °F 23.0 °F 46% 30.15 in - West 5.8 mph - N/A   Clear
2:00 PM 42.8 °F 38.6 °F 23.0 °F 46% 30.15 in 6.2 mi West 6.9 mph - N/A   Mostly Cloudy
2:30 PM 42.8 °F 38.0 °F 23.0 °F 46% 30.15 in 6.2 mi NW 8.1 mph - N/A   Mostly Cloudy
3:00 PM 44.6 °F 41.4 °F 21.2 °F 39% 30.12 in 6.2 mi West 5.8 mph - N/A   Scattered Clouds
3:30 PM 44.6 °F 40.2 °F 21.2 °F 39% 30.12 in - WNW 8.1 mph - N/A   Clear
4:00 PM 42.8 °F 37.5 °F 23.0 °F 46% 30.12 in - NW 9.2 mph - N/A   Clear
4:30 PM 42.8 °F 38.0 °F 23.0 °F 46% 30.12 in - WNW 8.1 mph - N/A   Clear
5:00 PM 41.0 °F 35.8 °F 23.0 °F 49% 30.12 in - WNW 8.1 mph - N/A   Clear
5:30 PM 39.2 °F 34.2 °F 23.0 °F 52% 30.12 in - WNW 6.9 mph - N/A   Clear
6:00 PM 39.2 °F 34.2 °F 23.0 °F 52% 30.12 in - WNW 6.9 mph - N/A   Clear
6:30 PM 37.4 °F 32.1 °F 23.0 °F 56% 30.12 in - WNW 6.9 mph - N/A   Clear
7:00 PM 37 °F - 23 °F 44% 30.17 in 22 mi NW 4.5 mph - -   Clear
7:00 PM 37.4 °F 32.8 °F 23.0 °F 56% 30.12 in - NW 5.8 mph - N/A   Clear
7:30 PM 35.6 °F 32.8 °F 23.0 °F 60% 30.12 in - NW 3.5 mph - N/A   Clear
8:00 PM 35.6 °F - 23.0 °F 60% 30.12 in - Variable 1.2 mph - N/A   Clear
8:30 PM 33.8 °F 30.8 °F 24.8 °F 70% 30.12 in - NE 3.5 mph - N/A   Clear
9:00 PM 32.0 °F - 23.0 °F 69% 30.12 in - North 1.2 mph - N/A   Clear
9:30 PM 30.2 °F 24.3 °F 24.8 °F 80% 30.12 in - West 5.8 mph - N/A   Clear
10:00 PM 32.0 °F 28.7 °F 24.8 °F 75% 30.12 in - NNW 3.5 mph - N/A   Clear
10:30 PM 32.0 °F - 24.8 °F 75% 30.12 in - North 2.3 mph - N/A   Clear
11:00 PM 30.2 °F - 23.0 °F 75% 30.12 in - Calm Calm - N/A   Clear
11:30 PM 28.4 °F - 23.0 °F 80% 30.12 in - Variable 2.3 mph - N/A   Clear